BAW9EW CYUL-EGLL

Flight info

Callsign BAW9EW
Flight time N/A
Altitude 37000
Route DCT ANTEG DCT OBRON DCT MOBUB DCT EBMOS DCT IMORI DCT KITOP DCT CEFOU N645B RIKAL/M083F380 DCT 53N050W 54N040W 55N030W 55N020W DCT DOGAL DCT BEXET/N0477F390 DCT INKUR DCT LIFFY UL975 MALUD Q38 NUGRA NUGRA2H
Aircraft B77W/H-SDE1E3FGHIJ3J4J5J6M1M2P2RWXYZ/LB1D1

Departure

Time N/A
Airport Montreal / Pierre Elliott Trudeau International Airport (CYUL)

Arrival

Time 2026-05-07 18:27
Airport London Heathrow Airport (EGLL)
Time Latitude Longitude Altitude Speed Heading
2026-05-07 15:13 53.96312 -40.62285 38282 ft 510 kts 80°
2026-05-07 15:13 53.97047 -40.50305 38283 ft 510 kts 80°
2026-05-07 15:14 53.97771 -40.38303 38295 ft 510 kts 79°
2026-05-07 15:14 53.98478 -40.26371 38289 ft 510 kts 80°
2026-05-07 15:15 53.99178 -40.14376 38291 ft 509 kts 80°
2026-05-07 15:15 53.99873 -40.02432 38293 ft 508 kts 78°
2026-05-07 15:16 54.01223 -39.90697 38300 ft 502 kts 70°
2026-05-07 15:16 54.02927 -39.79156 38297 ft 502 kts 70°
2026-05-07 15:17 54.04612 -39.67666 38306 ft 502 kts 71°
2026-05-07 15:17 54.06251 -39.56166 38307 ft 502 kts 71°
2026-05-07 15:18 54.07871 -39.44596 38305 ft 502 kts 71°
2026-05-07 15:18 54.09476 -39.33018 38308 ft 502 kts 71°
2026-05-07 15:19 54.11070 -39.21439 38311 ft 501 kts 70°
2026-05-07 15:19 54.12641 -39.09948 38313 ft 500 kts 71°
2026-05-07 15:20 54.14213 -38.98373 38315 ft 499 kts 71°
2026-05-07 15:20 54.15759 -38.86893 38352 ft 498 kts 71°
2026-05-07 15:21 54.17303 -38.75346 38318 ft 498 kts 70°
2026-05-07 15:21 54.18826 -38.63861 38322 ft 498 kts 71°
2026-05-07 15:22 54.20341 -38.52341 38322 ft 498 kts 71°
2026-05-07 15:22 54.21852 -38.40768 38323 ft 498 kts 71°
2026-05-07 15:23 54.23349 -38.29200 38359 ft 499 kts 70°
2026-05-07 15:23 54.24838 -38.17603 38337 ft 500 kts 71°
2026-05-07 15:24 54.26320 -38.05963 38328 ft 501 kts 71°
2026-05-07 15:24 54.27782 -37.94383 38335 ft 501 kts 70°
2026-05-07 15:25 54.29241 -37.82729 38331 ft 501 kts 71°
2026-05-07 15:25 54.30687 -37.71075 38352 ft 501 kts 70°
2026-05-07 15:26 54.32123 -37.59415 38338 ft 500 kts 70°
2026-05-07 15:26 54.33543 -37.47778 38328 ft 500 kts 70°
2026-05-07 15:27 54.34953 -37.36133 38332 ft 499 kts 71°
2026-05-07 15:27 54.36352 -37.24475 38335 ft 499 kts 71°
2026-05-07 15:28 54.37735 -37.12847 38339 ft 500 kts 70°
2026-05-07 15:28 54.39118 -37.01112 38337 ft 500 kts 71°
2026-05-07 15:29 54.40488 -36.89393 38332 ft 500 kts 71°
2026-05-07 15:29 54.41838 -36.77729 38337 ft 501 kts 71°
2026-05-07 15:30 54.43186 -36.65985 38347 ft 500 kts 71°
2026-05-07 15:30 54.44521 -36.54247 38341 ft 501 kts 71°
2026-05-07 15:31 54.45840 -36.42532 38340 ft 500 kts 71°
2026-05-07 15:31 54.47146 -36.30827 38340 ft 499 kts 71°
2026-05-07 15:32 54.48444 -36.19094 38342 ft 498 kts 71°
2026-05-07 15:32 54.49727 -36.07378 38342 ft 498 kts 71°
2026-05-07 15:33 54.50995 -35.95705 38344 ft 499 kts 71°
2026-05-07 15:33 54.52257 -35.83959 38344 ft 498 kts 71°
2026-05-07 15:34 54.53509 -35.72201 38340 ft 498 kts 71°
2026-05-07 15:34 54.54746 -35.60470 38342 ft 498 kts 71°
2026-05-07 15:35 54.55966 -35.48786 38391 ft 498 kts 71°
2026-05-07 15:35 54.57182 -35.37019 38341 ft 498 kts 71°
2026-05-07 15:36 54.58381 -35.25294 38339 ft 497 kts 71°
2026-05-07 15:36 54.59565 -35.13601 38338 ft 495 kts 71°
2026-05-07 15:37 54.60741 -35.01875 38333 ft 494 kts 71°
2026-05-07 15:37 54.61898 -34.90218 38340 ft 494 kts 72°
2026-05-07 15:38 54.63048 -34.78524 38339 ft 494 kts 72°
2026-05-07 15:38 54.64185 -34.66836 38341 ft 494 kts 72°
2026-05-07 15:39 54.65305 -34.55199 38338 ft 494 kts 72°
2026-05-07 15:39 54.66421 -34.43476 38342 ft 495 kts 72°
2026-05-07 15:40 54.67528 -34.31726 38372 ft 496 kts 72°
2026-05-07 15:40 54.68628 -34.19930 38345 ft 497 kts 72°
2026-05-07 15:41 54.69533 -34.10105 38338 ft 498 kts 72°
2026-05-07 15:41 54.70612 -33.98276 38344 ft 498 kts 73°
2026-05-07 15:42 54.71681 -33.86428 38337 ft 498 kts 73°
2026-05-07 15:42 54.72737 -33.74599 38376 ft 497 kts 73°
2026-05-07 15:43 54.73781 -33.62763 38342 ft 496 kts 73°
2026-05-07 15:43 54.74808 -33.50971 38336 ft 495 kts 74°
2026-05-07 15:44 54.75817 -33.39260 38331 ft 493 kts 74°
2026-05-07 15:44 54.76822 -33.27474 38337 ft 493 kts 74°
2026-05-07 15:45 54.77805 -33.15801 38372 ft 493 kts 75°
2026-05-07 15:45 54.78783 -33.04048 38350 ft 492 kts 75°
2026-05-07 15:46 54.80226 -32.86430 38331 ft 492 kts 75°
2026-05-07 15:47 54.81171 -32.74715 38331 ft 492 kts 75°
2026-05-07 15:47 54.82105 -32.62995 38338 ft 492 kts 75°
2026-05-07 15:48 54.83033 -32.51213 38336 ft 494 kts 75°
2026-05-07 15:48 54.83950 -32.39414 38337 ft 495 kts 75°
2026-05-07 15:49 54.84862 -32.27508 38332 ft 497 kts 75°
2026-05-07 15:49 54.85760 -32.15639 38329 ft 498 kts 75°
2026-05-07 15:50 54.86646 -32.03759 38387 ft 498 kts 75°
2026-05-07 15:50 54.87528 -31.91803 38335 ft 501 kts 76°
2026-05-07 15:51 54.88399 -31.79804 38331 ft 502 kts 76°
2026-05-07 15:51 54.89261 -31.67758 38326 ft 503 kts 76°
2026-05-07 15:52 54.90111 -31.55703 38320 ft 503 kts 76°
2026-05-07 15:52 54.90949 -31.43649 38371 ft 504 kts 76°
2026-05-07 15:53 54.91780 -31.31518 38336 ft 504 kts 76°
2026-05-07 15:53 54.92593 -31.19476 38323 ft 503 kts 76°
2026-05-07 15:54 54.93202 -31.10321 38318 ft 502 kts 76°
2026-05-07 15:54 54.93998 -30.98207 38314 ft 501 kts 77°
2026-05-07 15:55 54.94771 -30.86254 38354 ft 500 kts 77°
2026-05-07 15:55 54.95538 -30.74230 38322 ft 499 kts 77°
2026-05-07 15:56 54.96288 -30.62261 38315 ft 498 kts 77°
2026-05-07 15:56 54.97029 -30.50251 38313 ft 497 kts 77°
2026-05-07 15:57 54.97752 -30.38344 38310 ft 496 kts 77°
2026-05-07 15:57 54.98463 -30.26428 38361 ft 496 kts 78°
2026-05-07 15:58 54.99165 -30.14495 38311 ft 496 kts 78°
2026-05-07 15:58 54.99858 -30.02502 38304 ft 497 kts 78°
2026-05-07 15:59 55.00453 -29.90528 38308 ft 498 kts 79°
2026-05-07 15:59 55.00904 -29.78532 38310 ft 499 kts 80°
2026-05-07 16:00 55.01340 -29.66441 38344 ft 499 kts 80°
2026-05-07 16:00 55.01785 -29.54366 38309 ft 500 kts 80°
2026-05-07 16:01 55.02229 -29.42297 38299 ft 500 kts 81°
2026-05-07 16:01 55.02663 -29.30235 38295 ft 500 kts 81°
2026-05-07 16:02 55.03086 -29.18114 38294 ft 500 kts 81°
2026-05-07 16:02 55.03495 -29.06032 38291 ft 500 kts 81°
2026-05-07 16:03 55.03893 -28.93907 38290 ft 500 kts 81°
2026-05-07 16:03 55.04277 -28.81834 38291 ft 500 kts 81°
2026-05-07 16:04 55.04652 -28.69676 38288 ft 500 kts 81°
2026-05-07 16:04 55.05013 -28.57598 38285 ft 500 kts 81°
2026-05-07 16:05 55.05361 -28.45513 38301 ft 501 kts 82°
2026-05-07 16:05 55.05701 -28.33327 38287 ft 501 kts 82°
2026-05-07 16:06 55.06026 -28.21194 38279 ft 501 kts 82°
2026-05-07 16:06 55.06339 -28.09103 38276 ft 501 kts 82°
2026-05-07 16:07 55.06640 -27.96955 38276 ft 501 kts 82°
2026-05-07 16:07 55.06930 -27.84820 38298 ft 501 kts 83°
2026-05-07 16:08 55.07209 -27.72628 38270 ft 502 kts 83°
2026-05-07 16:08 55.07474 -27.60502 38266 ft 502 kts 83°
2026-05-07 16:09 55.07727 -27.48328 38257 ft 500 kts 83°
2026-05-07 16:09 55.07968 -27.36213 38261 ft 501 kts 83°
2026-05-07 16:10 55.08198 -27.24039 38278 ft 502 kts 84°
2026-05-07 16:10 55.08415 -27.11919 38264 ft 503 kts 84°
2026-05-07 16:11 55.08621 -26.99716 38250 ft 503 kts 84°
2026-05-07 16:11 55.08814 -26.87518 38250 ft 503 kts 84°
2026-05-07 16:12 55.08996 -26.75299 38251 ft 503 kts 84°
2026-05-07 16:12 55.09165 -26.63075 38267 ft 504 kts 84°
2026-05-07 16:13 55.09323 -26.50821 38239 ft 504 kts 84°
2026-05-07 16:13 55.09467 -26.38621 38236 ft 504 kts 84°
2026-05-07 16:14 55.09601 -26.26340 38236 ft 504 kts 85°
2026-05-07 16:14 55.09720 -26.14158 38236 ft 504 kts 85°
2026-05-07 16:15 55.09829 -26.01892 38236 ft 504 kts 85°
2026-05-07 16:15 55.09925 -25.89681 38229 ft 505 kts 85°
2026-05-07 16:16 55.10009 -25.77423 38226 ft 505 kts 85°
2026-05-07 16:16 55.10081 -25.65119 38226 ft 505 kts 85°
2026-05-07 16:17 55.10139 -25.52952 38215 ft 505 kts 86°
2026-05-07 16:17 55.10187 -25.40680 38223 ft 506 kts 86°
2026-05-07 16:18 55.10221 -25.28410 38218 ft 506 kts 86°
2026-05-07 16:18 55.10243 -25.16115 38219 ft 505 kts 86°
2026-05-07 16:19 55.10253 -25.03838 38218 ft 505 kts 86°
2026-05-07 16:19 55.10251 -24.91578 38204 ft 505 kts 86°
2026-05-07 16:20 55.10237 -24.79330 38212 ft 506 kts 87°
2026-05-07 16:20 55.10210 -24.67035 38197 ft 506 kts 87°
2026-05-07 16:21 55.10170 -24.54730 38201 ft 505 kts 87°
2026-05-07 16:21 55.10118 -24.42472 38192 ft 505 kts 87°
2026-05-07 16:22 55.10055 -24.30215 38195 ft 505 kts 88°
2026-05-07 16:22 55.09979 -24.17953 38198 ft 506 kts 88°
2026-05-07 16:23 55.09890 -24.05670 38189 ft 506 kts 88°
2026-05-07 16:23 55.09789 -23.93470 38184 ft 506 kts 88°
2026-05-07 16:24 55.09676 -23.81203 38182 ft 506 kts 88°
2026-05-07 16:24 55.09551 -23.68937 38183 ft 506 kts 88°
2026-05-07 16:25 55.09412 -23.56598 38182 ft 506 kts 89°
2026-05-07 16:25 55.09262 -23.44308 38161 ft 506 kts 89°
2026-05-07 16:26 55.09100 -23.32108 38171 ft 506 kts 89°
2026-05-07 16:26 55.08925 -23.19850 38169 ft 506 kts 89°
2026-05-07 16:27 55.08737 -23.07548 38164 ft 506 kts 89°
2026-05-07 16:27 55.08537 -22.95243 38162 ft 506 kts 89°
2026-05-07 16:28 55.08325 -22.82978 38156 ft 507 kts 90°
2026-05-07 16:28 55.08101 -22.70746 38152 ft 506 kts 90°
2026-05-07 16:29 55.07864 -22.58465 38158 ft 506 kts 90°
2026-05-07 16:29 55.07615 -22.46191 38172 ft 507 kts 90°
2026-05-07 16:30 55.07353 -22.33902 38158 ft 505 kts 90°
2026-05-07 16:30 55.07080 -22.21668 38154 ft 506 kts 90°
2026-05-07 16:31 55.06793 -22.09377 38122 ft 501 kts 90°
2026-05-07 16:31 55.06500 -21.97350 38152 ft 500 kts 91°
2026-05-07 16:32 55.06192 -21.85127 38155 ft 507 kts 91°
2026-05-07 16:32 55.05866 -21.72685 38145 ft 517 kts 91°
2026-05-07 16:33 55.05525 -21.60293 38134 ft 509 kts 91°
2026-05-07 16:33 55.05178 -21.48142 38121 ft 498 kts 91°
2026-05-07 16:34 55.04825 -21.36118 38114 ft 493 kts 91°
2026-05-07 16:34 55.04466 -21.24284 38129 ft 489 kts 91°
2026-05-07 16:35 55.04096 -21.12440 38115 ft 487 kts 92°
2026-05-07 16:35 55.03718 -21.00715 38118 ft 487 kts 92°
2026-05-07 16:36 55.03323 -20.88816 38118 ft 498 kts 92°
2026-05-07 16:36 55.02911 -20.76774 38110 ft 498 kts 92°
2026-05-07 16:37 55.02484 -20.64697 38120 ft 502 kts 92°
2026-05-07 16:37 55.02042 -20.52483 38100 ft 503 kts 93°
2026-05-07 16:38 55.01591 -20.40388 38098 ft 501 kts 93°
2026-05-07 16:38 55.01124 -20.28188 38109 ft 510 kts 93°
2026-05-07 16:39 55.00639 -20.15801 38087 ft 508 kts 93°
2026-05-07 16:39 55.00114 -20.03675 38089 ft 501 kts 96°
2026-05-07 16:40 54.98684 -19.91860 38089 ft 500 kts 107°
2026-05-07 16:40 54.96588 -19.80268 38090 ft 503 kts 108°
2026-05-07 16:41 54.94440 -19.68486 38094 ft 516 kts 108°
2026-05-07 16:41 54.92299 -19.56605 38081 ft 518 kts 108°
2026-05-07 16:42 54.90516 -19.46680 38071 ft 517 kts 108°
2026-05-07 16:42 54.88376 -19.34806 38078 ft 514 kts 108°
2026-05-07 16:43 54.86231 -19.22995 38065 ft 511 kts 108°
2026-05-07 16:43 54.84088 -19.11285 38066 ft 509 kts 108°
2026-05-07 16:44 54.81935 -18.99598 38064 ft 507 kts 108°
2026-05-07 16:44 54.79781 -18.87971 38052 ft 506 kts 108°
2026-05-07 16:45 54.77630 -18.76438 38066 ft 506 kts 109°
2026-05-07 16:45 54.75444 -18.64786 38062 ft 507 kts 109°
2026-05-07 16:46 54.73265 -18.53244 38059 ft 508 kts 109°
2026-05-07 16:46 54.71060 -18.41630 38052 ft 508 kts 109°
2026-05-07 16:47 54.68843 -18.30029 38050 ft 509 kts 109°
2026-05-07 16:47 54.66613 -18.18432 38044 ft 509 kts 109°
2026-05-07 16:48 54.64374 -18.06856 38047 ft 509 kts 109°
2026-05-07 16:48 54.62117 -17.95252 38044 ft 509 kts 109°
2026-05-07 16:49 54.59856 -17.83705 38041 ft 509 kts 110°
2026-05-07 16:49 54.57580 -17.72149 38035 ft 509 kts 110°
2026-05-07 16:50 54.55295 -17.60614 38035 ft 508 kts 110°
2026-05-07 16:50 54.53006 -17.49124 38031 ft 508 kts 110°
2026-05-07 16:51 54.50688 -17.37563 38016 ft 507 kts 110°
2026-05-07 16:51 54.48379 -17.26108 38026 ft 507 kts 110°
2026-05-07 16:52 54.46056 -17.14656 38024 ft 507 kts 110°
2026-05-07 16:52 54.43740 -17.03299 38021 ft 507 kts 110°
2026-05-07 16:53 54.41386 -16.91825 38023 ft 507 kts 111°
2026-05-07 16:53 54.39043 -16.80468 38010 ft 507 kts 111°
2026-05-07 16:54 54.36683 -16.69098 38016 ft 505 kts 111°
2026-05-07 16:54 54.34317 -16.57756 38009 ft 505 kts 111°
2026-05-07 16:55 54.31940 -16.46434 38007 ft 507 kts 111°
2026-05-07 16:55 54.29541 -16.35063 38010 ft 507 kts 111°
2026-05-07 16:56 54.27144 -16.23768 38012 ft 508 kts 111°
2026-05-07 16:56 54.23519 -16.06805 38008 ft 505 kts 111°
2026-05-07 16:57 54.21096 -15.95544 38008 ft 506 kts 112°
2026-05-07 16:57 54.18644 -15.84213 37992 ft 506 kts 112°
2026-05-07 16:58 54.16203 -15.72992 37999 ft 507 kts 112°
2026-05-07 16:58 54.13741 -15.61738 37990 ft 507 kts 112°
2026-05-07 16:59 54.11265 -15.50480 37991 ft 507 kts 112°
2026-05-07 16:59 54.08783 -15.39252 37993 ft 507 kts 112°
2026-05-07 17:00 54.06284 -15.28010 37988 ft 506 kts 112°
2026-05-07 17:00 54.03779 -15.16792 37972 ft 506 kts 113°
2026-05-07 17:01 54.01380 -15.05655 37978 ft 506 kts 108°
2026-05-07 17:01 54.00069 -14.93890 37989 ft 509 kts 97°
2026-05-07 17:02 53.99930 -14.81781 37977 ft 510 kts 90°
2026-05-07 17:02 54.00036 -14.69768 37978 ft 511 kts 90°
2026-05-07 17:03 54.00093 -14.57668 37970 ft 512 kts 91°
2026-05-07 17:03 54.00099 -14.45582 37970 ft 512 kts 91°
2026-05-07 17:04 54.00086 -14.33529 37969 ft 512 kts 91°
2026-05-07 17:04 54.00064 -14.21433 37967 ft 512 kts 91°
2026-05-07 17:05 54.00033 -14.09283 37963 ft 512 kts 92°
2026-05-07 17:05 53.99978 -13.97220 38050 ft 515 kts 93°
2026-05-07 17:06 53.99835 -13.91095 38373 ft 515 kts 95°
2026-05-07 17:06 53.99621 -13.85089 38762 ft 513 kts 95°
2026-05-07 17:06 53.99375 -13.79004 38980 ft 514 kts 96°
2026-05-07 17:06 53.99124 -13.72962 38951 ft 516 kts 96°
2026-05-07 17:07 53.98646 -13.60865 38941 ft 509 kts 95°
2026-05-07 17:07 53.98200 -13.48943 38945 ft 505 kts 95°
2026-05-07 17:08 53.97755 -13.37036 38953 ft 505 kts 95°
2026-05-07 17:08 53.97297 -13.25125 38956 ft 505 kts 95°
2026-05-07 17:09 53.96828 -13.13284 38950 ft 506 kts 96°
2026-05-07 17:09 53.96342 -13.01353 38951 ft 507 kts 96°
2026-05-07 17:10 53.95844 -12.89398 38949 ft 508 kts 96°
2026-05-07 17:10 53.95334 -12.77451 38950 ft 509 kts 96°
2026-05-07 17:11 53.94808 -12.65421 38943 ft 509 kts 96°
2026-05-07 17:11 53.94273 -12.53449 38945 ft 509 kts 96°
2026-05-07 17:12 53.93727 -12.41484 38941 ft 509 kts 96°
2026-05-07 17:12 53.93169 -12.29535 38941 ft 508 kts 96°
2026-05-07 17:13 53.92599 -12.17605 38943 ft 507 kts 96°
2026-05-07 17:13 53.92020 -12.05698 38942 ft 506 kts 97°
2026-05-07 17:14 53.91428 -11.93804 38938 ft 506 kts 97°
2026-05-07 17:14 53.90827 -11.81949 38925 ft 504 kts 97°
2026-05-07 17:15 53.90216 -11.70137 38935 ft 503 kts 97°
2026-05-07 17:15 53.89595 -11.58349 38928 ft 503 kts 97°
2026-05-07 17:16 53.88962 -11.46562 38938 ft 501 kts 97°
2026-05-07 17:16 53.88320 -11.34840 38933 ft 501 kts 97°
2026-05-07 17:17 53.87667 -11.23107 38938 ft 500 kts 97°
2026-05-07 17:17 53.87001 -11.11358 38939 ft 500 kts 98°
2026-05-07 17:18 53.86326 -10.99653 38941 ft 500 kts 98°
2026-05-07 17:18 53.85637 -10.87921 38934 ft 500 kts 98°
2026-05-07 17:19 53.84939 -10.76216 38937 ft 501 kts 98°
2026-05-07 17:19 53.84225 -10.64454 38940 ft 501 kts 98°
2026-05-07 17:20 53.83505 -10.52771 38945 ft 501 kts 98°
2026-05-07 17:20 53.82769 -10.41021 38938 ft 501 kts 98°
2026-05-07 17:21 53.82025 -10.29338 38939 ft 501 kts 98°
2026-05-07 17:21 53.81264 -10.17562 38912 ft 502 kts 98°
2026-05-07 17:22 53.80498 -10.05901 38935 ft 501 kts 98°
2026-05-07 17:22 53.79715 -9.94150 38933 ft 502 kts 98°
2026-05-07 17:23 53.78930 -9.82526 38929 ft 497 kts 98°
2026-05-07 17:23 53.78145 -9.71070 38926 ft 487 kts 98°
2026-05-07 17:24 53.77357 -9.59753 38912 ft 483 kts 99°
2026-05-07 17:24 53.76565 -9.48541 38918 ft 479 kts 99°
2026-05-07 17:25 53.75771 -9.37433 38909 ft 473 kts 99°
2026-05-07 17:25 53.74971 -9.26395 38922 ft 475 kts 99°
2026-05-07 17:26 53.74143 -9.15175 38932 ft 491 kts 99°
2026-05-07 17:26 53.73279 -9.03588 38929 ft 504 kts 99°
2026-05-07 17:27 53.72392 -8.91803 38916 ft 508 kts 99°
2026-05-07 17:27 53.71502 -8.80106 38897 ft 499 kts 99°
2026-05-07 17:28 53.70606 -8.68518 38908 ft 496 kts 99°
2026-05-07 17:28 53.69698 -8.56952 38911 ft 496 kts 99°
2026-05-07 17:29 53.68786 -8.45477 38903 ft 496 kts 99°
2026-05-07 17:29 53.67855 -8.33900 38906 ft 497 kts 99°
2026-05-07 17:30 53.66918 -8.22381 38903 ft 498 kts 99°
2026-05-07 17:30 53.65960 -8.10760 38916 ft 499 kts 99°
2026-05-07 17:31 53.64998 -7.99222 38913 ft 499 kts 100°
2026-05-07 17:31 53.64017 -7.87598 38912 ft 500 kts 100°
2026-05-07 17:32 53.63030 -7.76040 38905 ft 500 kts 100°
2026-05-07 17:32 53.62196 -7.66374 38912 ft 500 kts 100°
2026-05-07 17:33 53.61019 -7.52881 38914 ft 499 kts 100°
2026-05-07 17:33 53.59997 -7.41301 38916 ft 499 kts 100°
2026-05-07 17:34 53.59211 -7.29665 38910 ft 500 kts 97°
2026-05-07 17:34 53.58592 -7.17988 38911 ft 499 kts 97°
2026-05-07 17:35 53.57968 -7.06401 38915 ft 498 kts 97°
2026-05-07 17:35 53.57311 -6.94837 38914 ft 498 kts 97°
2026-05-07 17:36 53.56629 -6.83223 38918 ft 497 kts 97°
2026-05-07 17:36 53.55937 -6.71636 38910 ft 497 kts 98°
2026-05-07 17:37 53.55239 -6.60122 38920 ft 496 kts 98°
2026-05-07 17:37 53.54532 -6.48630 38923 ft 495 kts 98°
2026-05-07 17:38 53.53809 -6.37076 38930 ft 495 kts 98°
2026-05-07 17:38 53.53079 -6.25572 38928 ft 495 kts 98°
2026-05-07 17:39 53.52340 -6.14117 38937 ft 494 kts 98°
2026-05-07 17:39 53.51588 -6.02626 38937 ft 494 kts 98°
2026-05-07 17:40 53.50825 -5.91145 38945 ft 494 kts 98°
2026-05-07 17:40 53.50057 -5.79756 38945 ft 493 kts 98°
2026-05-07 17:41 53.49405 -5.70211 38956 ft 493 kts 98°
2026-05-07 17:41 53.48613 -5.58738 38956 ft 493 kts 98°
2026-05-07 17:42 53.47823 -5.45389 38957 ft 494 kts 95°
2026-05-07 17:42 53.47591 -5.35769 38957 ft 495 kts 94°
2026-05-07 17:43 53.47320 -5.24183 38972 ft 495 kts 94°
2026-05-07 17:43 53.46994 -5.12708 38967 ft 495 kts 95°
2026-05-07 17:44 53.46614 -5.01140 38959 ft 494 kts 95°
2026-05-07 17:44 53.46231 -4.89674 38966 ft 494 kts 95°
2026-05-07 17:45 53.45832 -4.78140 38975 ft 494 kts 95°
2026-05-07 17:45 53.45418 -4.66696 38973 ft 493 kts 95°
2026-05-07 17:46 53.45017 -4.55165 38977 ft 493 kts 95°
2026-05-07 17:46 53.44650 -4.43677 38981 ft 493 kts 95°
2026-05-07 17:47 53.44264 -4.32223 38986 ft 493 kts 95°
2026-05-07 17:47 53.43811 -4.20809 38984 ft 493 kts 96°
2026-05-07 17:48 53.43326 -4.09323 38979 ft 493 kts 96°
2026-05-07 17:48 53.42844 -3.97830 38979 ft 492 kts 96°
2026-05-07 17:49 53.42373 -3.86421 38986 ft 492 kts 96°
2026-05-07 17:49 53.41904 -3.74951 38990 ft 492 kts 96°
2026-05-07 17:50 53.41135 -3.63628 38988 ft 489 kts 105°
2026-05-07 17:50 53.39095 -3.52819 38990 ft 485 kts 116°
2026-05-07 17:51 53.36148 -3.42758 38992 ft 483 kts 118°
2026-05-07 17:51 53.33196 -3.32616 39001 ft 483 kts 118°
2026-05-07 17:52 53.30263 -3.22483 39008 ft 483 kts 118°
2026-05-07 17:52 53.27337 -3.12428 39019 ft 483 kts 118°
2026-05-07 17:53 53.24383 -3.02319 39016 ft 483 kts 118°
2026-05-07 17:53 53.21439 -2.92290 39017 ft 483 kts 118°
2026-05-07 17:54 53.18465 -2.82201 39019 ft 483 kts 118°
2026-05-07 17:54 53.15507 -2.72209 39001 ft 483 kts 118°
2026-05-07 17:55 53.12515 -2.62143 39011 ft 484 kts 118°
2026-05-07 17:55 53.09516 -2.52094 38915 ft 480 kts 118°
2026-05-07 17:56 53.08047 -2.47183 38668 ft 480 kts 119°
2026-05-07 17:56 53.06550 -2.42192 38283 ft 480 kts 119°
2026-05-07 17:56 53.05070 -2.37270 37800 ft 481 kts 119°
2026-05-07 17:56 53.03469 -2.32392 37015 ft 476 kts 127°
2026-05-07 17:57 53.01273 -2.28339 36325 ft 467 kts 143°
2026-05-07 17:57 52.99504 -2.26357 35879 ft 459 kts 152°
2026-05-07 17:57 52.95874 -2.22802 35210 ft 453 kts 151°
2026-05-07 17:57 52.93196 -2.20091 34695 ft 449 kts 150°
2026-05-07 17:58 52.90572 -2.17384 34190 ft 446 kts 150°
2026-05-07 17:58 52.87951 -2.14656 33620 ft 442 kts 149°
2026-05-07 17:58 52.85355 -2.11944 33063 ft 438 kts 149°
2026-05-07 17:58 52.82786 -2.09260 32555 ft 433 kts 149°
2026-05-07 17:59 52.80267 -2.06633 32066 ft 429 kts 149°
2026-05-07 17:59 52.77748 -2.04011 31548 ft 425 kts 149°
2026-05-07 17:59 52.75280 -2.01447 31081 ft 421 kts 149°
2026-05-07 17:59 52.72803 -1.98878 30585 ft 418 kts 150°
2026-05-07 18:00 52.70349 -1.96339 30107 ft 415 kts 150°
2026-05-07 18:00 52.67902 -1.93809 29575 ft 412 kts 150°
2026-05-07 18:00 52.65509 -1.91339 29083 ft 407 kts 150°
2026-05-07 18:00 52.63115 -1.88870 28583 ft 403 kts 150°
2026-05-07 18:01 52.60746 -1.86431 28112 ft 399 kts 150°
2026-05-07 18:01 52.58390 -1.84008 27612 ft 396 kts 150°
2026-05-07 18:01 52.56090 -1.81646 27149 ft 393 kts 150°
2026-05-07 18:01 52.53775 -1.79272 26665 ft 390 kts 150°
2026-05-07 18:02 52.49190 -1.74578 25739 ft 385 kts 151°
2026-05-07 18:02 52.46928 -1.72267 25276 ft 383 kts 151°
2026-05-07 18:02 52.44666 -1.69959 24813 ft 381 kts 151°
2026-05-07 18:03 52.42446 -1.67696 24377 ft 379 kts 151°
2026-05-07 18:03 52.40197 -1.65407 23906 ft 378 kts 151°
2026-05-07 18:03 52.37956 -1.63128 23438 ft 377 kts 151°
2026-05-07 18:03 52.35763 -1.60900 22924 ft 375 kts 151°
2026-05-07 18:04 52.33547 -1.58651 22441 ft 373 kts 151°
2026-05-07 18:04 52.31332 -1.56406 22007 ft 370 kts 151°
2026-05-07 18:04 52.29158 -1.54205 21553 ft 367 kts 151°
2026-05-07 18:04 52.26989 -1.52010 21099 ft 365 kts 150°
2026-05-07 18:05 52.24867 -1.49868 20664 ft 362 kts 150°
2026-05-07 18:05 52.22710 -1.47693 20202 ft 360 kts 150°
2026-05-07 18:05 52.20626 -1.45449 19799 ft 358 kts 145°
2026-05-07 18:05 52.18698 -1.42873 19473 ft 359 kts 141°
2026-05-07 18:06 52.16823 -1.40165 19117 ft 361 kts 140°
2026-05-07 18:06 52.14961 -1.37452 18753 ft 363 kts 140°
2026-05-07 18:06 52.13064 -1.34721 18397 ft 363 kts 141°
2026-05-07 18:06 52.11156 -1.32012 17975 ft 362 kts 141°
2026-05-07 18:07 52.09251 -1.29336 17583 ft 360 kts 141°
2026-05-07 18:07 52.07390 -1.26738 17213 ft 355 kts 141°
2026-05-07 18:07 52.05526 -1.24147 16843 ft 350 kts 142°
2026-05-07 18:07 52.03691 -1.21601 16496 ft 344 kts 142°
2026-05-07 18:08 52.01877 -1.19090 16134 ft 341 kts 142°
2026-05-07 18:08 52.00078 -1.16600 15790 ft 338 kts 142°
2026-05-07 18:08 51.98297 -1.14139 15452 ft 335 kts 142°
2026-05-07 18:08 51.96520 -1.11688 15112 ft 333 kts 142°
2026-05-07 18:09 51.94761 -1.09263 14757 ft 332 kts 142°
2026-05-07 18:09 51.93028 -1.06876 14393 ft 331 kts 142°
2026-05-07 18:09 51.91268 -1.04453 14019 ft 331 kts 142°
2026-05-07 18:09 51.89514 -1.02039 13625 ft 331 kts 142°
2026-05-07 18:10 51.87752 -0.99621 13204 ft 330 kts 142°
2026-05-07 18:10 51.86012 -0.97217 12805 ft 325 kts 140°
2026-05-07 18:10 51.84605 -0.94386 12433 ft 322 kts 120°
2026-05-07 18:10 51.83644 -0.91127 12094 ft 323 kts 117°
2026-05-07 18:11 51.82674 -0.87830 11728 ft 326 kts 117°
2026-05-07 18:11 51.82018 -0.85636 11489 ft 327 kts 117°
2026-05-07 18:11 51.80697 -0.81256 11023 ft 325 kts 118°
2026-05-07 18:11 51.79703 -0.77991 10652 ft 322 kts 118°
2026-05-07 18:12 51.78728 -0.74803 10571 ft 311 kts 118°
2026-05-07 18:12 51.77783 -0.71720 10516 ft 301 kts 118°
2026-05-07 18:12 51.76867 -0.68740 10456 ft 292 kts 118°
2026-05-07 18:12 51.75963 -0.65803 10391 ft 284 kts 118°
2026-05-07 18:13 51.75108 -0.63028 10331 ft 276 kts 118°
2026-05-07 18:13 51.74251 -0.60258 10272 ft 268 kts 118°
2026-05-07 18:13 51.73426 -0.57603 10233 ft 259 kts 120°
2026-05-07 18:13 51.72405 -0.55329 9980 ft 252 kts 130°
2026-05-07 18:14 51.71304 -0.53129 9642 ft 250 kts 137°
2026-05-07 18:14 51.69845 -0.51742 9343 ft 245 kts 171°
2026-05-07 18:14 51.68195 -0.52015 9129 ft 238 kts 204°
2026-05-07 18:14 51.66805 -0.53439 9059 ft 238 kts 222°
2026-05-07 18:15 51.65893 -0.55645 9046 ft 242 kts 253°
2026-05-07 18:15 51.65704 -0.58359 9043 ft 248 kts 268°
2026-05-07 18:15 51.65722 -0.61173 8787 ft 253 kts 270°
2026-05-07 18:15 51.65769 -0.64015 8552 ft 253 kts 270°
2026-05-07 18:16 51.65615 -0.66772 8244 ft 245 kts 251°
2026-05-07 18:16 51.64989 -0.69239 8129 ft 237 kts 245°
2026-05-07 18:16 51.64338 -0.71647 8067 ft 235 kts 246°
2026-05-07 18:16 51.63678 -0.74027 8030 ft 230 kts 240°
2026-05-07 18:17 51.62664 -0.76010 8064 ft 231 kts 223°
2026-05-07 18:17 51.61455 -0.77775 8049 ft 237 kts 221°
2026-05-07 18:17 51.60205 -0.79537 8028 ft 237 kts 221°
2026-05-07 18:17 51.59105 -0.81446 7806 ft 236 kts 240°
2026-05-07 18:18 51.58510 -0.83888 7576 ft 232 kts 251°
2026-05-07 18:18 51.58003 -0.86352 7307 ft 230 kts 251°
2026-05-07 18:18 51.57506 -0.88722 7155 ft 222 kts 250°
2026-05-07 18:18 51.57024 -0.91015 7069 ft 211 kts 250°
2026-05-07 18:19 51.56318 -0.92999 6830 ft 202 kts 221°
2026-05-07 18:19 51.55079 -0.93903 6522 ft 196 kts 186°
2026-05-07 18:19 51.53741 -0.93977 6190 ft 195 kts 180°
2026-05-07 18:19 51.52392 -0.94028 5793 ft 193 kts 181°
2026-05-07 18:20 51.51052 -0.94080 5347 ft 193 kts 180°
2026-05-07 18:20 51.49709 -0.94138 4945 ft 194 kts 180°
2026-05-07 18:20 51.48380 -0.94050 4613 ft 190 kts 162°
2026-05-07 18:20 51.47335 -0.92841 4261 ft 187 kts 120°
2026-05-07 18:21 51.47091 -0.90882 4059 ft 178 kts 81°
2026-05-07 18:21 51.47301 -0.88880 4046 ft 187 kts 82°
2026-05-07 18:21 51.47470 -0.86804 4004 ft 191 kts 84°
2026-05-07 18:21 51.47568 -0.84691 3985 ft 188 kts 88°
2026-05-07 18:22 51.47609 -0.82606 3982 ft 186 kts 89°
2026-05-07 18:22 51.47623 -0.81233 3979 ft 186 kts 89°
2026-05-07 18:22 51.47640 -0.78436 3781 ft 191 kts 90°
2026-05-07 18:22 51.47649 -0.76297 3537 ft 191 kts 90°
2026-05-07 18:23 51.47656 -0.74170 3276 ft 190 kts 90°
2026-05-07 18:23 51.47664 -0.72090 3021 ft 188 kts 90°
2026-05-07 18:23 51.47672 -0.69996 2769 ft 187 kts 90°
2026-05-07 18:23 51.47679 -0.67915 2510 ft 186 kts 91°
2026-05-07 18:24 51.47686 -0.65857 2282 ft 181 kts 91°
2026-05-07 18:24 51.47693 -0.63858 2013 ft 177 kts 91°
2026-05-07 18:24 51.47701 -0.61950 1764 ft 165 kts 91°
2026-05-07 18:24 51.47707 -0.60107 1555 ft 166 kts 91°
2026-05-07 18:25 51.47714 -0.58294 1315 ft 157 kts 92°
2026-05-07 18:25 51.47721 -0.56635 1117 ft 141 kts 92°
2026-05-07 18:25 51.47725 -0.55062 943 ft 141 kts 92°
2026-05-07 18:25 51.47731 -0.53528 730 ft 137 kts 92°
2026-05-07 18:26 51.47737 -0.52016 544 ft 135 kts 92°
2026-05-07 18:26 51.47741 -0.50534 355 ft 130 kts 92°
2026-05-07 18:26 51.47750 -0.49090 192 ft 129 kts 91°
2026-05-07 18:26 51.47756 -0.47668 95 ft 121 kts 90°
2026-05-07 18:27 51.47758 -0.46502 97 ft 83 kts 90°
2026-05-07 18:27 51.47760 -0.45824 92 ft 37 kts 90°
2026-05-07 18:27 51.47754 -0.45542 94 ft 18 kts 109°
2026-05-07 18:27 51.47718 -0.45485 92 ft 10 kts 154°
2026-05-07 18:28 51.47650 -0.45468 91 ft 6 kts 177°
2026-05-07 18:28 51.47628 -0.45467 91 ft 3 kts 177°
2026-05-07 18:28 51.47606 -0.45474 96 ft 4 kts 216°
2026-05-07 18:28 51.47598 -0.45526 95 ft 8 kts 263°
2026-05-07 18:29 51.47596 -0.45634 94 ft 11 kts 269°
2026-05-07 18:29 51.47596 -0.45757 94 ft 12 kts 270°
2026-05-07 18:29 51.47595 -0.45897 94 ft 13 kts 269°
2026-05-07 18:29 51.47594 -0.46042 94 ft 14 kts 270°
2026-05-07 18:30 51.47594 -0.46200 94 ft 15 kts 270°
2026-05-07 18:30 51.47594 -0.46369 94 ft 16 kts 270°
2026-05-07 18:30 51.47593 -0.46552 94 ft 17 kts 269°
2026-05-07 18:30 51.47592 -0.46746 91 ft 18 kts 269°
2026-05-07 18:31 51.47585 -0.46879 93 ft 18 kts 263°
2026-05-07 18:31 51.47582 -0.47145 95 ft 18 kts 270°
2026-05-07 18:31 51.47582 -0.47297 95 ft 11 kts 268°
2026-05-07 18:31 51.47548 -0.47346 92 ft 11 kts 195°
2026-05-07 18:32 51.47471 -0.47354 91 ft 12 kts 180°
2026-05-07 18:32 51.47380 -0.47354 91 ft 14 kts 179°
2026-05-07 18:32 51.47274 -0.47353 94 ft 15 kts 179°
2026-05-07 18:32 51.47168 -0.47352 91 ft 15 kts 179°
2026-05-07 18:33 51.47066 -0.47351 91 ft 10 kts 180°
2026-05-07 18:33 51.47011 -0.47352 91 ft 6 kts 185°
2026-05-07 18:33 51.46986 -0.47398 93 ft 6 kts 252°
2026-05-07 18:33 51.46982 -0.47463 94 ft 5 kts 267°
2026-05-07 18:34 51.46982 -0.47492 94 ft 1 kts 269°